Time,TemperatureF,DewpointF,PressureIn,WindDirection,WindDirectionDegrees,WindSpeedMPH,WindSpeedGustMPH,Humidity,HourlyPrecipIn,Conditions,Clouds,dailyrainin,SoftwareType,DateUTC
2013-10-17 00:01:00,64.3,63.1,29.98,NW,323,0.0,1.0,96,0.00,,,0.00,WeatherCatV1.02B3,2013-10-17 05:01:00,
2013-10-17 00:06:00,64.3,63.1,29.98,NW,323,0.0,0.0,96,0.00,,,0.00,WeatherCatV1.02B3,2013-10-17 05:06:00,
2013-10-17 00:11:00,64.3,63.1,29.98,NW,323,0.0,0.0,96,0.00,,,0.00,WeatherCatV1.02B3,2013-10-17 05:11:00,
2013-10-17 00:16:00,64.2,63.0,29.98,NW,323,0.0,0.0,96,0.00,,,0.00,WeatherCatV1.02B3,2013-10-17 05:16:00,
2013-10-17 00:21:00,64.2,63.0,29.98,NW,323,0.0,0.0,96,0.00,,,0.01,WeatherCatV1.02B3,2013-10-17 05:21:00,
2013-10-17 00:26:00,64.2,63.0,29.97,NW,324,0.0,2.0,96,0.00,,,0.01,WeatherCatV1.02B3,2013-10-17 05:26:00,
2013-10-17 00:31:00,64.3,63.1,29.97,NW,324,0.0,0.0,96,0.00,,,0.01,WeatherCatV1.02B3,2013-10-17 05:31:00,
2013-10-17 00:36:00,64.2,63.0,29.98,NW,324,0.0,0.0,96,0.00,,,0.02,WeatherCatV1.02B3,2013-10-17 05:36:00,
2013-10-17 00:41:00,64.2,63.0,29.98,NW,323,0.0,0.0,96,0.00,,,0.02,WeatherCatV1.02B3,2013-10-17 05:41:00,
2013-10-17 00:46:00,64.2,63.0,29.97,NW,323,0.0,0.0,96,0.00,,,0.02,WeatherCatV1.02B3,2013-10-17 05:46:00,
2013-10-17 00:51:00,64.1,62.9,29.98,NW,324,0.0,0.0,96,0.00,,,0.02,WeatherCatV1.02B3,2013-10-17 05:51:00,
2013-10-17 00:56:00,64.0,62.8,29.98,NW,323,0.0,0.0,96,0.00,,,0.02,WeatherCatV1.02B3,2013-10-17 05:56:00,
2013-10-17 01:01:00,63.8,62.6,29.98,NW,324,0.0,0.0,96,0.00,,,0.02,WeatherCatV1.02B3,2013-10-17 06:01:00,
2013-10-17 01:06:00,63.7,62.5,29.97,NW,323,0.0,0.0,96,0.00,,,0.02,WeatherCatV1.02B3,2013-10-17 06:06:00,
2013-10-17 01:11:00,63.6,62.4,29.97,NW,323,0.0,0.0,96,0.00,,,0.02,WeatherCatV1.02B3,2013-10-17 06:11:00,
2013-10-17 01:16:00,63.7,62.5,29.97,NW,323,0.0,0.0,96,0.00,,,0.02,WeatherCatV1.02B3,2013-10-17 06:16:00,
2013-10-17 01:21:00,63.7,62.5,29.97,NW,323,0.0,0.0,96,0.00,,,0.02,WeatherCatV1.02B3,2013-10-17 06:21:00,
2013-10-17 01:26:00,63.6,62.4,29.97,NW,323,0.0,0.0,96,0.00,,,0.02,WeatherCatV1.02B3,2013-10-17 06:26:00,
2013-10-17 01:31:00,63.5,62.3,29.96,NW,323,0.0,0.0,96,0.00,,,0.03,WeatherCatV1.02B3,2013-10-17 06:31:00,
2013-10-17 01:36:00,63.6,62.4,29.97,NW,323,0.0,0.0,96,0.00,,,0.03,WeatherCatV1.02B3,2013-10-17 06:36:00,
2013-10-17 01:41:00,63.7,62.5,29.97,NW,323,0.0,0.0,96,0.00,,,0.03,WeatherCatV1.02B3,2013-10-17 06:41:00,
2013-10-17 01:46:00,63.8,62.6,29.96,NW,323,0.0,0.0,96,0.00,,,0.03,WeatherCatV1.02B3,2013-10-17 06:46:00,
2013-10-17 01:51:00,63.8,62.6,29.96,NW,323,0.0,0.0,96,0.00,,,0.03,WeatherCatV1.02B3,2013-10-17 06:51:00,
2013-10-17 01:56:00,63.9,62.7,29.96,NW,323,0.0,0.0,96,0.00,,,0.03,WeatherCatV1.02B3,2013-10-17 06:56:00,
2013-10-17 02:01:00,63.9,62.7,29.96,NW,323,0.0,0.0,96,0.00,,,0.03,WeatherCatV1.02B3,2013-10-17 07:01:00,
2013-10-17 02:06:00,63.9,62.7,29.95,NW,323,0.0,0.0,96,0.00,,,0.03,WeatherCatV1.02B3,2013-10-17 07:06:00,
2013-10-17 02:11:00,63.9,62.7,29.96,NW,323,0.0,0.0,96,0.00,,,0.03,WeatherCatV1.02B3,2013-10-17 07:11:00,
2013-10-17 02:16:00,64.0,62.8,29.95,NW,323,0.0,0.0,96,0.00,,,0.03,WeatherCatV1.02B3,2013-10-17 07:16:00,
2013-10-17 02:21:00,64.0,62.8,29.96,NW,323,0.0,0.0,96,0.00,,,0.03,WeatherCatV1.02B3,2013-10-17 07:21:00,
2013-10-17 02:26:00,64.1,62.9,29.96,NW,323,0.0,0.0,96,0.00,,,0.03,WeatherCatV1.02B3,2013-10-17 07:26:00,
2013-10-17 02:31:00,64.1,62.9,29.95,NW,323,0.0,0.0,96,0.00,,,0.03,WeatherCatV1.02B3,2013-10-17 07:31:00,
2013-10-17 02:36:00,64.1,62.9,29.95,NW,323,0.0,0.0,96,0.00,,,0.03,WeatherCatV1.02B3,2013-10-17 07:36:00,
2013-10-17 02:41:00,64.2,63.0,29.95,NW,323,0.0,0.0,96,0.00,,,0.03,WeatherCatV1.02B3,2013-10-17 07:41:00,
2013-10-17 02:46:00,64.2,63.0,29.95,NW,323,0.0,0.0,96,0.00,,,0.03,WeatherCatV1.02B3,2013-10-17 07:46:00,
2013-10-17 02:51:00,64.2,63.0,29.95,NW,323,0.0,0.0,96,0.00,,,0.03,WeatherCatV1.02B3,2013-10-17 07:51:00,
2013-10-17 02:56:00,64.1,62.9,29.95,NW,323,0.0,1.0,96,0.00,,,0.03,WeatherCatV1.02B3,2013-10-17 07:56:00,
2013-10-17 03:01:00,63.9,62.7,29.95,NW,323,0.0,0.0,96,0.00,,,0.03,WeatherCatV1.02B3,2013-10-17 08:01:00,
2013-10-17 03:06:00,63.8,62.6,29.95,NW,311,0.0,0.0,96,0.00,,,0.03,WeatherCatV1.02B3,2013-10-17 08:06:00,
2013-10-17 03:08:00,63.8,62.6,29.95,NW,311,0.0,0.0,96,0.00,,,0.03,WeatherCatV1.02B3,2013-10-17 08:08:00,
2013-10-17 03:13:00,63.7,62.5,29.96,NW,306,0.0,0.0,96,0.00,,,0.03,WeatherCatV1.02B3,2013-10-17 08:13:00,
2013-10-17 03:18:00,63.6,62.4,29.96,NW,306,0.0,0.0,96,0.00,,,0.03,WeatherCatV1.02B3,2013-10-17 08:18:00,
2013-10-17 03:23:00,63.5,62.3,29.96,NW,306,0.0,0.0,96,0.00,,,0.03,WeatherCatV1.02B3,2013-10-17 08:23:00,
2013-10-17 03:28:00,63.4,62.2,29.95,NW,306,0.0,0.0,96,0.00,,,0.03,WeatherCatV1.02B3,2013-10-17 08:28:00,
2013-10-17 03:33:00,63.4,62.2,29.96,NW,307,0.0,0.0,96,0.00,,,0.03,WeatherCatV1.02B3,2013-10-17 08:33:00,
2013-10-17 03:38:00,63.4,62.2,29.96,NW,306,0.0,1.0,96,0.00,,,0.03,WeatherCatV1.02B3,2013-10-17 08:38:00,
2013-10-17 03:43:00,63.4,62.2,29.96,NW,306,0.0,1.0,96,0.00,,,0.03,WeatherCatV1.02B3,2013-10-17 08:43:00,
2013-10-17 03:48:00,63.3,62.1,29.95,NW,306,0.0,0.0,96,0.00,,,0.03,WeatherCatV1.02B3,2013-10-17 08:48:00,
2013-10-17 03:53:00,63.3,62.1,29.96,NW,306,0.0,0.0,96,0.00,,,0.03,WeatherCatV1.02B3,2013-10-17 08:53:00,
2013-10-17 03:58:00,63.3,62.1,29.96,NW,306,0.0,0.0,96,0.00,,,0.03,WeatherCatV1.02B3,2013-10-17 08:58:00,
2013-10-17 04:03:00,63.3,62.1,29.95,NW,306,0.0,0.0,96,0.00,,,0.03,WeatherCatV1.02B3,2013-10-17 09:03:00,
2013-10-17 04:08:00,63.2,62.0,29.96,NW,306,0.0,0.0,96,0.00,,,0.03,WeatherCatV1.02B3,2013-10-17 09:08:00,
2013-10-17 04:13:00,63.2,62.0,29.95,NW,306,0.0,0.0,96,0.00,,,0.03,WeatherCatV1.02B3,2013-10-17 09:13:00,
2013-10-17 04:18:00,63.2,62.0,29.96,NW,306,0.0,0.0,96,0.00,,,0.03,WeatherCatV1.02B3,2013-10-17 09:18:00,
2013-10-17 04:23:00,63.1,61.9,29.96,NW,306,0.0,0.0,96,0.00,,,0.03,WeatherCatV1.02B3,2013-10-17 09:23:00,
2013-10-17 04:28:00,63.1,61.9,29.96,NW,306,0.0,0.0,96,0.00,,,0.03,WeatherCatV1.02B3,2013-10-17 09:28:00,
2013-10-17 04:33:00,63.0,61.8,29.96,NW,306,0.0,0.0,96,0.00,,,0.03,WeatherCatV1.02B3,2013-10-17 09:33:00,
2013-10-17 04:38:00,62.9,61.7,29.96,NW,306,0.0,0.0,96,0.00,,,0.03,WeatherCatV1.02B3,2013-10-17 09:38:00,
2013-10-17 04:43:00,62.9,61.7,29.96,NW,306,0.0,1.0,96,0.00,,,0.03,WeatherCatV1.02B3,2013-10-17 09:43:00,
2013-10-17 04:48:00,62.9,61.7,29.97,NW,306,0.0,0.0,96,0.00,,,0.03,WeatherCatV1.02B3,2013-10-17 09:48:00,
2013-10-17 04:53:00,62.9,61.7,29.97,NW,306,0.0,1.0,96,0.00,,,0.03,WeatherCatV1.02B3,2013-10-17 09:53:00,
2013-10-17 04:58:00,62.8,61.6,29.97,NW,306,0.0,0.0,96,0.00,,,0.03,WeatherCatV1.02B3,2013-10-17 09:58:00,
2013-10-17 05:03:00,62.8,61.6,29.97,NW,306,0.0,1.0,96,0.00,,,0.03,WeatherCatV1.02B3,2013-10-17 10:03:00,
2013-10-17 05:08:00,62.8,61.6,29.97,NW,306,0.0,0.0,96,0.00,,,0.03,WeatherCatV1.02B3,2013-10-17 10:08:00,
2013-10-17 05:13:00,62.8,61.6,29.97,NW,306,0.0,1.0,96,0.00,,,0.03,WeatherCatV1.02B3,2013-10-17 10:13:00,
2013-10-17 05:18:00,62.7,61.5,29.97,West,268,2.0,2.0,96,0.00,,,0.03,WeatherCatV1.02B3,2013-10-17 10:18:00,
2013-10-17 05:23:00,62.7,61.5,29.97,West,267,0.0,3.0,96,0.00,,,0.03,WeatherCatV1.02B3,2013-10-17 10:23:00,
2013-10-17 05:28:00,62.6,61.4,29.97,West,281,0.0,2.0,96,0.00,,,0.03,WeatherCatV1.02B3,2013-10-17 10:28:00,
2013-10-17 05:33:00,62.6,61.4,29.97,WSW,257,0.0,4.0,96,0.00,,,0.03,WeatherCatV1.02B3,2013-10-17 10:33:00,
2013-10-17 05:38:00,62.6,61.4,29.97,West,259,0.0,0.0,96,0.00,,,0.03,WeatherCatV1.02B3,2013-10-17 10:38:00,
2013-10-17 05:43:00,62.6,61.4,29.97,West,259,0.0,0.0,96,0.00,,,0.03,WeatherCatV1.02B3,2013-10-17 10:43:00,
2013-10-17 05:48:00,62.7,61.5,29.97,West,259,0.0,0.0,96,0.00,,,0.03,WeatherCatV1.02B3,2013-10-17 10:48:00,
2013-10-17 05:53:00,62.7,61.5,29.97,West,259,0.0,0.0,96,0.00,,,0.03,WeatherCatV1.02B3,2013-10-17 10:53:00,
2013-10-17 05:58:00,62.7,61.5,29.97,West,259,0.0,0.0,96,0.00,,,0.03,WeatherCatV1.02B3,2013-10-17 10:58:00,
2013-10-17 06:03:00,62.6,61.4,29.98,West,265,0.0,0.0,96,0.00,,,0.03,WeatherCatV1.02B3,2013-10-17 11:03:00,
2013-10-17 06:08:00,62.5,61.3,29.98,West,266,0.0,1.0,96,0.00,,,0.03,WeatherCatV1.02B3,2013-10-17 11:08:00,
2013-10-17 06:13:00,62.4,61.2,29.98,WNW,299,0.0,1.0,96,0.00,,,0.03,WeatherCatV1.02B3,2013-10-17 11:13:00,
2013-10-17 06:18:00,62.4,61.2,29.98,NW,307,0.0,0.0,96,0.00,,,0.03,WeatherCatV1.02B3,2013-10-17 11:18:00,
2013-10-17 06:23:00,62.0,60.8,29.98,WNW,286,0.0,2.0,96,0.00,,,0.03,WeatherCatV1.02B3,2013-10-17 11:23:00,
2013-10-17 06:28:00,61.8,60.6,29.98,WNW,286,0.0,0.0,96,0.00,,,0.03,WeatherCatV1.02B3,2013-10-17 11:28:00,
2013-10-17 06:33:00,61.7,60.5,29.98,North,349,1.0,3.0,96,0.00,,,0.03,WeatherCatV1.02B3,2013-10-17 11:33:00,
2013-10-17 06:38:00,61.7,60.5,29.99,WSW,248,0.0,3.0,96,0.00,,,0.03,WeatherCatV1.02B3,2013-10-17 11:38:00,
2013-10-17 06:43:00,61.4,60.2,29.99,North,5,1.0,1.0,96,0.00,,,0.03,WeatherCatV1.02B3,2013-10-17 11:43:00,
2013-10-17 06:48:00,61.3,60.1,29.99,West,266,2.0,2.0,96,0.00,,,0.03,WeatherCatV1.02B3,2013-10-17 11:48:00,
2013-10-17 06:53:00,61.2,60.0,29.99,West,276,0.0,2.0,96,0.00,,,0.03,WeatherCatV1.02B3,2013-10-17 11:53:00,
2013-10-17 06:58:00,61.1,59.9,29.99,WSW,252,0.0,1.0,96,0.00,,,0.03,WeatherCatV1.02B3,2013-10-17 11:58:00,
2013-10-17 07:03:00,61.1,59.9,29.99,West,259,4.0,4.0,96,0.00,,,0.03,WeatherCatV1.02B3,2013-10-17 12:03:00,
2013-10-17 07:08:00,61.1,59.9,30.00,West,269,0.0,1.0,96,0.00,,,0.03,WeatherCatV1.02B3,2013-10-17 12:08:00,
2013-10-17 07:13:00,60.9,59.7,30.00,SW,225,0.0,1.0,96,0.00,,,0.03,WeatherCatV1.02B3,2013-10-17 12:13:00,
2013-10-17 07:18:00,60.8,59.7,30.00,WNW,287,0.0,3.0,96,0.00,,,0.03,WeatherCatV1.02B3,2013-10-17 12:18:00,
2013-10-17 07:23:00,60.7,59.5,30.00,West,268,0.0,10.0,96,0.00,,,0.03,WeatherCatV1.02B3,2013-10-17 12:23:00,
2013-10-17 07:28:00,60.5,59.4,30.00,NW,315,0.0,3.0,96,0.00,,,0.03,WeatherCatV1.02B3,2013-10-17 12:28:00,
2013-10-17 07:33:00,60.5,59.4,30.00,NNW,331,1.0,3.0,96,0.00,,,0.03,WeatherCatV1.02B3,2013-10-17 12:33:00,
2013-10-17 07:38:00,60.5,59.4,30.00,NW,316,0.0,0.0,96,0.00,,,0.03,WeatherCatV1.02B3,2013-10-17 12:38:00,
2013-10-17 07:43:00,60.6,59.5,30.00,NNW,344,1.0,4.0,96,0.00,,,0.03,WeatherCatV1.02B3,2013-10-17 12:43:00,
2013-10-17 07:48:00,60.5,59.4,30.01,NNW,346,0.0,1.0,96,0.00,,,0.03,WeatherCatV1.02B3,2013-10-17 12:48:00,
2013-10-17 07:53:00,60.6,59.5,30.01,NNW,336,0.0,1.0,96,0.00,,,0.03,WeatherCatV1.02B3,2013-10-17 12:53:00,
2013-10-17 07:58:00,60.6,59.5,30.00,WNW,300,0.0,1.0,96,0.00,,,0.03,WeatherCatV1.02B3,2013-10-17 12:58:00,
2013-10-17 08:03:00,60.8,59.7,30.00,WNW,300,0.0,0.0,96,0.00,,,0.03,WeatherCatV1.02B3,2013-10-17 13:03:00,
2013-10-17 08:08:00,60.8,59.7,30.02,WNW,300,0.0,1.0,96,0.00,,,0.03,WeatherCatV1.02B3,2013-10-17 13:08:00,
2013-10-17 08:13:00,60.9,59.7,30.02,NW,307,0.0,0.0,96,0.00,,,0.03,WeatherCatV1.02B3,2013-10-17 13:13:00,
2013-10-17 08:18:00,60.9,59.7,30.02,NW,311,0.0,1.0,96,0.00,,,0.03,WeatherCatV1.02B3,2013-10-17 13:18:00,
2013-10-17 08:23:00,61.0,59.8,30.02,NW,311,0.0,0.0,96,0.00,,,0.03,WeatherCatV1.02B3,2013-10-17 13:23:00,
2013-10-17 08:28:00,61.0,59.8,30.02,NW,309,0.0,1.0,96,0.00,,,0.03,WeatherCatV1.02B3,2013-10-17 13:28:00,
2013-10-17 08:33:00,61.0,59.8,30.02,NNW,329,0.0,2.0,96,0.00,,,0.03,WeatherCatV1.02B3,2013-10-17 13:33:00,
2013-10-17 08:38:00,61.1,59.9,30.02,NW,325,0.0,0.0,96,0.00,,,0.03,WeatherCatV1.02B3,2013-10-17 13:38:00,
2013-10-17 08:43:00,61.1,59.9,30.02,NNW,342,0.0,3.0,96,0.00,,,0.03,WeatherCatV1.02B3,2013-10-17 13:43:00,
2013-10-17 08:48:00,61.1,59.9,30.03,NW,304,0.0,1.0,96,0.00,,,0.03,WeatherCatV1.02B3,2013-10-17 13:48:00,
2013-10-17 08:53:00,61.2,60.0,30.03,North,355,4.0,4.0,96,0.00,,,0.03,WeatherCatV1.02B3,2013-10-17 13:53:00,
2013-10-17 08:58:00,61.3,60.1,30.04,NNW,336,1.0,2.0,96,0.00,,,0.03,WeatherCatV1.02B3,2013-10-17 13:58:00,
2013-10-17 09:03:00,61.3,60.1,30.04,East,82,0.0,3.0,96,0.00,,,0.03,WeatherCatV1.02B3,2013-10-17 14:03:00,
2013-10-17 09:08:00,61.4,60.2,30.04,NNE,13,0.0,0.0,96,0.00,,,0.03,WeatherCatV1.02B3,2013-10-17 14:08:00,
2013-10-17 09:13:00,61.4,60.0,30.04,West,280,0.0,1.0,95,0.00,,,0.03,WeatherCatV1.02B3,2013-10-17 14:13:00,
2013-10-17 09:18:00,61.3,59.9,30.04,West,280,0.0,0.0,95,0.00,,,0.03,WeatherCatV1.02B3,2013-10-17 14:18:00,
2013-10-17 09:23:00,61.3,59.9,30.05,West,280,0.0,1.0,95,0.00,,,0.03,WeatherCatV1.02B3,2013-10-17 14:23:00,
2013-10-17 09:28:00,61.3,59.9,30.05,West,280,0.0,2.0,95,0.00,,,0.03,WeatherCatV1.02B3,2013-10-17 14:28:00,
2013-10-17 09:33:00,61.3,59.9,30.05,West,280,0.0,0.0,95,0.00,,,0.03,WeatherCatV1.02B3,2013-10-17 14:33:00,
2013-10-17 09:38:00,61.4,60.0,30.05,West,280,0.0,2.0,95,0.00,,,0.03,WeatherCatV1.02B3,2013-10-17 14:38:00,
2013-10-17 09:43:00,61.4,60.0,30.05,West,280,0.0,0.0,95,0.00,,,0.03,WeatherCatV1.02B3,2013-10-17 14:43:00,
2013-10-17 09:48:00,61.5,60.1,30.05,WSW,249,0.0,4.0,95,0.00,,,0.03,WeatherCatV1.02B3,2013-10-17 14:48:00,
2013-10-17 09:53:00,61.3,59.9,30.05,NW,304,1.0,1.0,95,0.00,,,0.03,WeatherCatV1.02B3,2013-10-17 14:53:00,
2013-10-17 09:58:00,61.2,59.8,30.05,NW,305,0.0,1.0,95,0.00,,,0.03,WeatherCatV1.02B3,2013-10-17 14:58:00,
2013-10-17 10:03:00,61.4,60.0,30.05,NW,304,0.0,1.0,95,0.00,,,0.03,WeatherCatV1.02B3,2013-10-17 15:03:00,
2013-10-17 10:08:00,61.5,60.1,30.06,WSW,242,1.0,4.0,95,0.00,,,0.03,WeatherCatV1.02B3,2013-10-17 15:08:00,
2013-10-17 10:13:00,61.5,60.1,30.06,NW,321,0.0,5.0,95,0.00,,,0.03,WeatherCatV1.02B3,2013-10-17 15:13:00,
2013-10-17 10:18:00,61.4,60.0,30.06,NNW,327,2.0,2.0,95,0.00,,,0.03,WeatherCatV1.02B3,2013-10-17 15:18:00,
2013-10-17 10:23:00,61.3,59.9,30.06,West,277,0.0,2.0,95,0.00,,,0.03,WeatherCatV1.02B3,2013-10-17 15:23:00,
2013-10-17 10:28:00,61.0,59.6,30.06,WSW,253,0.0,4.0,95,0.00,,,0.03,WeatherCatV1.02B3,2013-10-17 15:28:00,
2013-10-17 10:33:00,60.9,59.5,30.06,West,275,0.0,2.0,95,0.00,,,0.03,WeatherCatV1.02B3,2013-10-17 15:33:00,
2013-10-17 10:38:00,60.8,59.4,30.07,NW,311,0.0,4.0,95,0.00,,,0.03,WeatherCatV1.02B3,2013-10-17 15:38:00,
2013-10-17 10:43:00,60.7,59.0,30.06,WSW,249,0.0,1.0,94,0.00,,,0.03,WeatherCatV1.02B3,2013-10-17 15:43:00,
2013-10-17 10:48:00,60.8,59.4,30.07,West,271,0.0,3.0,95,0.00,,,0.03,WeatherCatV1.02B3,2013-10-17 15:48:00,
2013-10-17 10:53:00,60.7,59.0,30.07,WSW,255,0.0,5.0,94,0.00,,,0.03,WeatherCatV1.02B3,2013-10-17 15:53:00,
2013-10-17 10:58:00,60.8,59.1,30.06,WSW,251,0.0,3.0,94,0.00,,,0.03,WeatherCatV1.02B3,2013-10-17 15:58:00,
2013-10-17 11:03:00,61.0,59.3,30.06,West,272,1.0,1.0,94,0.00,,,0.03,WeatherCatV1.02B3,2013-10-17 16:03:00,
2013-10-17 11:08:00,61.1,59.4,30.07,West,279,0.0,2.0,94,0.00,,,0.03,WeatherCatV1.02B3,2013-10-17 16:08:00,
2013-10-17 11:13:00,61.3,59.6,30.07,WSW,249,0.0,4.0,94,0.00,,,0.03,WeatherCatV1.02B3,2013-10-17 16:13:00,
2013-10-17 11:18:00,61.3,59.3,30.07,West,261,0.0,2.0,93,0.00,,,0.03,WeatherCatV1.02B3,2013-10-17 16:18:00,
2013-10-17 11:23:00,61.5,59.5,30.07,NW,317,2.0,4.0,93,0.00,,,0.03,WeatherCatV1.02B3,2013-10-17 16:23:00,
2013-10-17 11:28:00,61.8,59.8,30.07,West,277,0.0,4.0,93,0.00,,,0.03,WeatherCatV1.02B3,2013-10-17 16:28:00,
2013-10-17 11:33:00,62.3,59.9,30.07,NNW,342,0.0,0.0,92,0.00,,,0.03,WeatherCatV1.02B3,2013-10-17 16:33:00,
2013-10-17 11:38:00,62.5,59.5,30.07,NW,307,0.0,3.0,90,0.00,,,0.03,WeatherCatV1.02B3,2013-10-17 16:38:00,
2013-10-17 11:43:00,62.9,60.2,30.07,NE,50,0.0,6.0,91,0.00,,,0.03,WeatherCatV1.02B3,2013-10-17 16:43:00,
2013-10-17 11:48:00,63.2,59.9,30.07,WNW,291,0.0,5.0,89,0.00,,,0.03,WeatherCatV1.02B3,2013-10-17 16:48:00,
2013-10-17 11:53:00,63.1,59.5,30.06,WNW,283,0.0,3.0,88,0.00,,,0.03,WeatherCatV1.02B3,2013-10-17 16:53:00,
2013-10-17 11:58:00,63.3,60.0,30.06,NNW,329,0.0,1.0,89,0.00,,,0.03,WeatherCatV1.02B3,2013-10-17 16:58:00,
2013-10-17 12:03:00,63.3,60.0,30.06,NW,325,0.0,4.0,89,0.00,,,0.03,WeatherCatV1.02B3,2013-10-17 17:03:00,
2013-10-17 12:08:00,63.2,59.6,30.06,WNW,286,0.0,3.0,88,0.00,,,0.03,WeatherCatV1.02B3,2013-10-17 17:08:00,
2013-10-17 12:13:00,63.4,60.1,30.06,NW,317,0.0,4.0,89,0.00,,,0.03,WeatherCatV1.02B3,2013-10-17 17:13:00,
2013-10-17 12:18:00,63.6,60.3,30.06,WSW,252,0.0,4.0,89,0.00,,,0.03,WeatherCatV1.02B3,2013-10-17 17:18:00,
2013-10-17 12:23:00,63.8,60.5,30.05,North,355,0.0,3.0,89,0.00,,,0.03,WeatherCatV1.02B3,2013-10-17 17:23:00,
2013-10-17 12:28:00,63.9,60.3,30.05,NW,325,2.0,5.0,88,0.00,,,0.03,WeatherCatV1.02B3,2013-10-17 17:28:00,
2013-10-17 12:33:00,63.8,59.9,30.05,NW,316,0.0,1.0,87,0.00,,,0.03,WeatherCatV1.02B3,2013-10-17 17:33:00,
2013-10-17 12:38:00,64.0,60.4,30.05,NNE,13,1.0,3.0,88,0.00,,,0.03,WeatherCatV1.02B3,2013-10-17 17:38:00,
2013-10-17 12:43:00,63.9,59.9,30.05,NW,317,2.0,2.0,87,0.00,,,0.03,WeatherCatV1.02B3,2013-10-17 17:43:00,
2013-10-17 12:48:00,64.0,59.7,30.05,WSW,238,0.0,4.0,86,0.00,,,0.03,WeatherCatV1.02B3,2013-10-17 17:48:00,
2013-10-17 12:53:00,63.8,59.5,30.05,North,355,0.0,3.0,86,0.00,,,0.03,WeatherCatV1.02B3,2013-10-17 17:53:00,
2013-10-17 12:58:00,63.4,59.5,30.04,NW,305,0.0,4.0,87,0.00,,,0.03,WeatherCatV1.02B3,2013-10-17 17:58:00,
2013-10-17 13:03:00,63.3,59.4,30.04,NW,304,0.0,1.0,87,0.00,,,0.03,WeatherCatV1.02B3,2013-10-17 18:03:00,
2013-10-17 13:08:00,63.4,59.8,30.04,North,355,0.0,1.0,88,0.00,,,0.03,WeatherCatV1.02B3,2013-10-17 18:08:00,
2013-10-17 13:13:00,63.6,59.7,30.04,West,265,3.0,3.0,87,0.00,,,0.03,WeatherCatV1.02B3,2013-10-17 18:13:00,
2013-10-17 13:18:00,63.6,59.3,30.03,West,281,0.0,1.0,86,0.00,,,0.03,WeatherCatV1.02B3,2013-10-17 18:18:00,
2013-10-17 13:23:00,63.7,59.4,30.03,WNW,298,0.0,1.0,86,0.00,,,0.03,WeatherCatV1.02B3,2013-10-17 18:23:00,
2013-10-17 13:28:00,63.7,59.4,30.03,NNW,337,0.0,2.0,86,0.00,,,0.03,WeatherCatV1.02B3,2013-10-17 18:28:00,
2013-10-17 13:33:00,63.6,59.3,30.03,NNW,342,0.0,2.0,86,0.00,,,0.03,WeatherCatV1.02B3,2013-10-17 18:33:00,
2013-10-17 13:38:00,63.7,59.8,30.03,North,355,0.0,3.0,87,0.00,,,0.03,WeatherCatV1.02B3,2013-10-17 18:38:00,
2013-10-17 13:43:00,63.8,59.9,30.03,NW,325,0.0,1.0,87,0.00,,,0.03,WeatherCatV1.02B3,2013-10-17 18:43:00,
2013-10-17 13:48:00,63.9,59.9,30.03,North,355,0.0,1.0,87,0.00,,,0.03,WeatherCatV1.02B3,2013-10-17 18:48:00,
2013-10-17 13:53:00,63.7,59.4,30.03,WSW,242,0.0,0.0,86,0.00,,,0.03,WeatherCatV1.02B3,2013-10-17 18:53:00,
2013-10-17 13:58:00,63.5,59.2,30.02,WNW,294,0.0,1.0,86,0.00,,,0.03,WeatherCatV1.02B3,2013-10-17 18:58:00,
2013-10-17 14:03:00,63.4,59.5,30.03,NNW,340,0.0,5.0,87,0.00,,,0.03,WeatherCatV1.02B3,2013-10-17 19:03:00,
2013-10-17 14:08:00,63.4,59.5,30.02,WSW,254,0.0,3.0,87,0.00,,,0.03,WeatherCatV1.02B3,2013-10-17 19:08:00,
2013-10-17 14:13:00,63.4,59.1,30.02,North,355,0.0,0.0,86,0.00,,,0.03,WeatherCatV1.02B3,2013-10-17 19:13:00,
2013-10-17 14:18:00,63.5,59.2,30.02,NW,319,0.0,5.0,86,0.00,,,0.03,WeatherCatV1.02B3,2013-10-17 19:18:00,
2013-10-17 14:23:00,63.5,58.9,30.02,NW,313,0.0,1.0,85,0.00,,,0.03,WeatherCatV1.02B3,2013-10-17 19:23:00,
2013-10-17 14:28:00,63.5,58.9,30.02,WNW,300,0.0,1.0,85,0.00,,,0.03,WeatherCatV1.02B3,2013-10-17 19:28:00,
2013-10-17 14:31:00,63.5,58.9,30.02,West,259,0.0,3.0,85,0.00,,,0.03,WeatherCatV1.02B3,2013-10-17 19:31:00,
2013-10-17 14:36:00,63.6,59.3,30.02,NNW,342,0.0,1.0,86,0.00,,,0.03,WeatherCatV1.02B3,2013-10-17 19:36:00,
2013-10-17 14:41:00,63.7,59.4,30.02,WNW,286,2.0,2.0,86,0.00,,,0.03,WeatherCatV1.02B3,2013-10-17 19:41:00,
2013-10-17 14:46:00,63.7,59.1,30.02,West,281,1.0,3.0,85,0.00,,,0.03,WeatherCatV1.02B3,2013-10-17 19:46:00,
2013-10-17 14:51:00,63.7,59.1,30.02,West,269,0.0,1.0,85,0.00,,,0.03,WeatherCatV1.02B3,2013-10-17 19:51:00,
2013-10-17 14:56:00,63.7,59.1,30.02,West,269,0.0,2.0,85,0.00,,,0.03,WeatherCatV1.02B3,2013-10-17 19:56:00,
2013-10-17 15:01:00,63.7,59.1,30.01,West,269,0.0,1.0,85,0.00,,,0.03,WeatherCatV1.02B3,2013-10-17 20:01:00,
2013-10-17 15:06:00,63.8,59.2,30.01,West,269,0.0,3.0,85,0.00,,,0.03,WeatherCatV1.02B3,2013-10-17 20:06:00,
2013-10-17 15:11:00,63.7,59.4,30.01,West,269,0.0,0.0,86,0.00,,,0.03,WeatherCatV1.02B3,2013-10-17 20:11:00,
2013-10-17 15:16:00,63.6,59.3,30.01,NNW,344,0.0,2.0,86,0.00,,,0.03,WeatherCatV1.02B3,2013-10-17 20:16:00,
2013-10-17 15:21:00,63.5,59.6,30.01,NNW,345,0.0,2.0,87,0.00,,,0.03,WeatherCatV1.02B3,2013-10-17 20:21:00,
2013-10-17 15:26:00,63.4,59.5,30.01,NNW,340,0.0,1.0,87,0.00,,,0.03,WeatherCatV1.02B3,2013-10-17 20:26:00,
2013-10-17 15:31:00,63.4,59.5,30.01,NNW,342,0.0,1.0,87,0.00,,,0.03,WeatherCatV1.02B3,2013-10-17 20:31:00,
2013-10-17 15:36:00,63.2,59.3,30.01,WSW,257,0.0,0.0,87,0.00,,,0.03,WeatherCatV1.02B3,2013-10-17 20:36:00,
2013-10-17 15:41:00,63.1,59.5,30.01,North,0,3.0,3.0,88,0.00,,,0.03,WeatherCatV1.02B3,2013-10-17 20:41:00,
2013-10-17 15:46:00,63.1,59.5,30.01,NE,53,0.0,2.0,88,0.00,,,0.03,WeatherCatV1.02B3,2013-10-17 20:46:00,
2013-10-17 15:51:00,62.9,59.0,30.01,NW,323,1.0,4.0,87,0.00,,,0.03,WeatherCatV1.02B3,2013-10-17 20:51:00,
2013-10-17 15:56:00,62.8,58.9,30.01,NNW,329,0.0,1.0,87,0.00,,,0.03,WeatherCatV1.02B3,2013-10-17 20:56:00,
2013-10-17 16:01:00,62.7,58.8,30.01,NNW,331,0.0,1.0,87,0.00,,,0.03,WeatherCatV1.02B3,2013-10-17 21:01:00,
2013-10-17 16:06:00,62.7,58.8,30.01,NNW,327,0.0,1.0,87,0.00,,,0.03,WeatherCatV1.02B3,2013-10-17 21:06:00,
2013-10-17 16:11:00,62.7,58.8,30.01,NW,314,0.0,1.0,87,0.00,,,0.03,WeatherCatV1.02B3,2013-10-17 21:11:00,
2013-10-17 16:16:00,62.8,58.9,30.01,West,281,0.0,1.0,87,0.00,,,0.03,WeatherCatV1.02B3,2013-10-17 21:16:00,
2013-10-17 16:21:00,62.9,59.0,30.01,West,281,0.0,0.0,87,0.00,,,0.03,WeatherCatV1.02B3,2013-10-17 21:21:00,
2013-10-17 16:26:00,63.0,59.1,30.01,West,281,0.0,0.0,87,0.00,,,0.03,WeatherCatV1.02B3,2013-10-17 21:26:00,
2013-10-17 16:31:00,63.2,59.3,30.01,West,281,0.0,0.0,87,0.00,,,0.03,WeatherCatV1.02B3,2013-10-17 21:31:00,
2013-10-17 16:36:00,63.4,59.5,30.01,NNW,343,0.0,0.0,87,0.00,,,0.03,WeatherCatV1.02B3,2013-10-17 21:36:00,
2013-10-17 16:41:00,63.5,59.6,30.01,NNW,343,0.0,0.0,87,0.00,,,0.03,WeatherCatV1.02B3,2013-10-17 21:41:00,
2013-10-17 16:46:00,63.6,59.3,30.01,North,0,1.0,1.0,86,0.00,,,0.03,WeatherCatV1.02B3,2013-10-17 21:46:00,
2013-10-17 16:51:00,63.6,59.0,30.01,NW,315,1.0,3.0,85,0.00,,,0.03,WeatherCatV1.02B3,2013-10-17 21:51:00,
2013-10-17 16:56:00,63.6,59.0,30.01,NW,311,0.0,2.0,85,0.00,,,0.03,WeatherCatV1.02B3,2013-10-17 21:56:00,
2013-10-17 17:01:00,63.6,59.0,30.01,NW,311,0.0,0.0,85,0.00,,,0.03,WeatherCatV1.02B3,2013-10-17 22:01:00,
2013-10-17 17:06:00,63.6,59.0,30.01,NW,311,0.0,0.0,85,0.00,,,0.03,WeatherCatV1.02B3,2013-10-17 22:06:00,
2013-10-17 17:11:00,63.8,59.2,30.01,NW,311,0.0,1.0,85,0.00,,,0.03,WeatherCatV1.02B3,2013-10-17 22:11:00,
2013-10-17 17:16:00,63.8,59.2,30.01,NW,309,0.0,1.0,85,0.00,,,0.03,WeatherCatV1.02B3,2013-10-17 22:16:00,
2013-10-17 17:21:00,63.8,58.9,30.01,NW,309,0.0,0.0,84,0.00,,,0.03,WeatherCatV1.02B3,2013-10-17 22:21:00,
2013-10-17 17:26:00,63.8,58.9,30.01,NW,309,0.0,0.0,84,0.00,,,0.03,WeatherCatV1.02B3,2013-10-17 22:26:00,
2013-10-17 17:31:00,63.8,59.2,30.01,NW,309,0.0,0.0,85,0.00,,,0.03,WeatherCatV1.02B3,2013-10-17 22:31:00,
2013-10-17 17:36:00,63.8,59.2,30.01,NW,309,0.0,0.0,85,0.00,,,0.03,WeatherCatV1.02B3,2013-10-17 22:36:00,
2013-10-17 17:41:00,63.8,59.2,30.01,East,98,0.0,1.0,85,0.00,,,0.03,WeatherCatV1.02B3,2013-10-17 22:41:00,
2013-10-17 17:46:00,63.7,59.1,30.01,NNW,333,0.0,0.0,85,0.00,,,0.03,WeatherCatV1.02B3,2013-10-17 22:46:00,
2013-10-17 17:51:00,63.5,58.9,30.01,South,189,0.0,0.0,85,0.00,,,0.03,WeatherCatV1.02B3,2013-10-17 22:51:00,
2013-10-17 17:56:00,63.4,59.1,30.01,South,189,0.0,0.0,86,0.00,,,0.03,WeatherCatV1.02B3,2013-10-17 22:56:00,
2013-10-17 18:01:00,63.3,59.0,30.01,South,189,0.0,0.0,86,0.00,,,0.03,WeatherCatV1.02B3,2013-10-17 23:01:00,
2013-10-17 18:06:00,63.2,58.9,30.01,South,189,0.0,1.0,86,0.00,,,0.03,WeatherCatV1.02B3,2013-10-17 23:06:00,
2013-10-17 18:11:00,63.0,58.7,30.02,South,189,0.0,0.0,86,0.00,,,0.03,WeatherCatV1.02B3,2013-10-17 23:11:00,
2013-10-17 18:16:00,62.9,58.6,30.02,South,189,0.0,0.0,86,0.00,,,0.03,WeatherCatV1.02B3,2013-10-17 23:16:00,
2013-10-17 18:21:00,62.8,58.9,30.02,South,189,0.0,0.0,87,0.00,,,0.03,WeatherCatV1.02B3,2013-10-17 23:21:00,
2013-10-17 18:26:00,62.6,58.7,30.02,South,189,0.0,0.0,87,0.00,,,0.03,WeatherCatV1.02B3,2013-10-17 23:26:00,
2013-10-17 18:31:00,62.4,58.5,30.02,South,189,0.0,0.0,87,0.00,,,0.03,WeatherCatV1.02B3,2013-10-17 23:31:00,
2013-10-17 18:36:00,62.3,58.7,30.02,South,189,0.0,0.0,88,0.00,,,0.03,WeatherCatV1.02B3,2013-10-17 23:36:00,
2013-10-17 18:41:00,62.1,58.5,30.02,South,189,0.0,0.0,88,0.00,,,0.03,WeatherCatV1.02B3,2013-10-17 23:41:00,
2013-10-17 18:46:00,62.0,58.4,30.02,South,189,0.0,0.0,88,0.00,,,0.03,WeatherCatV1.02B3,2013-10-17 23:46:00,
2013-10-17 18:51:00,61.7,58.4,30.02,South,189,0.0,0.0,89,0.00,,,0.03,WeatherCatV1.02B3,2013-10-17 23:51:00,
2013-10-17 18:56:00,61.5,58.2,30.02,South,189,0.0,0.0,89,0.00,,,0.03,WeatherCatV1.02B3,2013-10-17 23:56:00,
2013-10-17 19:01:00,61.3,58.0,30.02,South,189,0.0,0.0,89,0.00,,,0.03,WeatherCatV1.02B3,2013-10-18 00:01:00,
2013-10-17 19:06:00,61.1,57.8,30.02,South,189,0.0,0.0,89,0.00,,,0.03,WeatherCatV1.02B3,2013-10-18 00:06:00,
2013-10-17 19:11:00,60.9,57.6,30.02,South,189,0.0,0.0,89,0.00,,,0.03,WeatherCatV1.02B3,2013-10-18 00:11:00,
2013-10-17 19:16:00,60.7,57.7,30.02,South,189,0.0,0.0,90,0.00,,,0.03,WeatherCatV1.02B3,2013-10-18 00:16:00,
2013-10-17 19:21:00,60.5,57.5,30.02,South,189,0.0,0.0,90,0.00,,,0.03,WeatherCatV1.02B3,2013-10-18 00:21:00,
2013-10-17 19:26:00,60.3,57.4,30.03,South,189,0.0,0.0,90,0.00,,,0.03,WeatherCatV1.02B3,2013-10-18 00:26:00,
2013-10-17 19:31:00,60.1,57.2,30.03,South,189,0.0,0.0,90,0.00,,,0.03,WeatherCatV1.02B3,2013-10-18 00:31:00,
2013-10-17 19:36:00,59.9,57.0,30.03,South,189,0.0,0.0,90,0.00,,,0.03,WeatherCatV1.02B3,2013-10-18 00:36:00,
2013-10-17 19:41:00,59.7,56.8,30.03,South,189,0.0,0.0,90,0.00,,,0.03,WeatherCatV1.02B3,2013-10-18 00:41:00,
2013-10-17 19:46:00,59.5,56.6,30.03,South,189,0.0,0.0,90,0.00,,,0.03,WeatherCatV1.02B3,2013-10-18 00:46:00,
2013-10-17 19:51:00,59.3,56.7,30.04,South,189,0.0,0.0,91,0.00,,,0.03,WeatherCatV1.02B3,2013-10-18 00:51:00,
2013-10-17 19:56:00,59.2,56.6,30.03,South,189,0.0,0.0,91,0.00,,,0.03,WeatherCatV1.02B3,2013-10-18 00:56:00,
2013-10-17 20:01:00,59.0,56.4,30.04,South,189,0.0,0.0,91,0.00,,,0.03,WeatherCatV1.02B3,2013-10-18 01:01:00,
2013-10-17 20:06:00,58.9,56.3,30.04,South,189,0.0,0.0,91,0.00,,,0.03,WeatherCatV1.02B3,2013-10-18 01:06:00,
2013-10-17 20:11:00,58.7,56.4,30.04,South,189,0.0,0.0,92,0.00,,,0.03,WeatherCatV1.02B3,2013-10-18 01:11:00,
2013-10-17 20:16:00,58.6,56.3,30.04,South,189,0.0,0.0,92,0.00,,,0.03,WeatherCatV1.02B3,2013-10-18 01:16:00,
2013-10-17 20:21:00,58.4,56.1,30.04,South,189,0.0,0.0,92,0.00,,,0.03,WeatherCatV1.02B3,2013-10-18 01:21:00,
2013-10-17 20:26:00,58.3,56.0,30.04,South,189,0.0,0.0,92,0.00,,,0.03,WeatherCatV1.02B3,2013-10-18 01:26:00,
2013-10-17 20:31:00,58.2,55.9,30.04,South,189,0.0,0.0,92,0.00,,,0.03,WeatherCatV1.02B3,2013-10-18 01:31:00,
2013-10-17 20:36:00,58.1,55.8,30.04,South,189,0.0,0.0,92,0.00,,,0.03,WeatherCatV1.02B3,2013-10-18 01:36:00,
2013-10-17 20:41:00,58.0,55.7,30.05,South,189,0.0,0.0,92,0.00,,,0.03,WeatherCatV1.02B3,2013-10-18 01:41:00,
2013-10-17 20:46:00,57.8,55.5,30.05,South,189,0.0,0.0,92,0.00,,,0.03,WeatherCatV1.02B3,2013-10-18 01:46:00,
2013-10-17 20:51:00,57.7,55.7,30.05,South,189,0.0,0.0,93,0.00,,,0.03,WeatherCatV1.02B3,2013-10-18 01:51:00,
2013-10-17 20:56:00,57.6,55.3,30.04,South,189,0.0,0.0,92,0.00,,,0.03,WeatherCatV1.02B3,2013-10-18 01:56:00,
2013-10-17 21:01:00,57.5,55.5,30.04,South,189,0.0,0.0,93,0.00,,,0.03,WeatherCatV1.02B3,2013-10-18 02:01:00,
2013-10-17 21:06:00,57.4,55.4,30.05,South,189,0.0,0.0,93,0.00,,,0.03,WeatherCatV1.02B3,2013-10-18 02:06:00,
2013-10-17 21:11:00,57.4,55.4,30.05,South,189,0.0,0.0,93,0.00,,,0.03,WeatherCatV1.02B3,2013-10-18 02:11:00,
2013-10-17 21:16:00,57.3,55.3,30.05,South,189,0.0,0.0,93,0.00,,,0.03,WeatherCatV1.02B3,2013-10-18 02:16:00,
2013-10-17 21:21:00,57.2,55.2,30.05,South,189,0.0,0.0,93,0.00,,,0.03,WeatherCatV1.02B3,2013-10-18 02:21:00,
2013-10-17 21:26:00,57.1,55.1,30.05,South,189,0.0,0.0,93,0.00,,,0.03,WeatherCatV1.02B3,2013-10-18 02:26:00,
2013-10-17 21:31:00,57.0,55.0,30.05,South,189,0.0,0.0,93,0.00,,,0.03,WeatherCatV1.02B3,2013-10-18 02:31:00,
2013-10-17 21:36:00,56.9,54.9,30.05,South,189,0.0,0.0,93,0.00,,,0.03,WeatherCatV1.02B3,2013-10-18 02:36:00,
2013-10-17 21:41:00,56.8,54.8,30.05,South,189,0.0,0.0,93,0.00,,,0.03,WeatherCatV1.02B3,2013-10-18 02:41:00,
2013-10-17 21:46:00,56.6,54.6,30.05,South,189,0.0,0.0,93,0.00,,,0.03,WeatherCatV1.02B3,2013-10-18 02:46:00,
2013-10-17 21:51:00,56.5,54.5,30.05,South,189,0.0,0.0,93,0.00,,,0.03,WeatherCatV1.02B3,2013-10-18 02:51:00,
2013-10-17 21:56:00,56.4,54.4,30.05,South,189,0.0,0.0,93,0.00,,,0.03,WeatherCatV1.02B3,2013-10-18 02:56:00,
2013-10-17 22:01:00,56.4,54.4,30.05,South,189,0.0,0.0,93,0.00,,,0.03,WeatherCatV1.02B3,2013-10-18 03:01:00,
2013-10-17 22:06:00,56.3,54.3,30.06,South,189,0.0,0.0,93,0.00,,,0.03,WeatherCatV1.02B3,2013-10-18 03:06:00,
2013-10-17 22:11:00,56.2,54.5,30.05,South,189,0.0,0.0,94,0.00,,,0.03,WeatherCatV1.02B3,2013-10-18 03:11:00,
2013-10-17 22:16:00,56.2,54.5,30.05,South,189,0.0,0.0,94,0.00,,,0.03,WeatherCatV1.02B3,2013-10-18 03:16:00,
2013-10-17 22:21:00,56.1,54.4,30.06,South,189,0.0,0.0,94,0.00,,,0.03,WeatherCatV1.02B3,2013-10-18 03:21:00,
2013-10-17 22:26:00,56.0,54.3,30.05,South,189,0.0,0.0,94,0.00,,,0.03,WeatherCatV1.02B3,2013-10-18 03:26:00,
2013-10-17 22:31:00,55.9,54.2,30.05,South,189,0.0,0.0,94,0.00,,,0.03,WeatherCatV1.02B3,2013-10-18 03:31:00,
2013-10-17 22:36:00,55.8,54.1,30.05,South,189,0.0,0.0,94,0.00,,,0.03,WeatherCatV1.02B3,2013-10-18 03:36:00,
2013-10-17 22:41:00,55.7,54.0,30.05,South,189,0.0,0.0,94,0.00,,,0.03,WeatherCatV1.02B3,2013-10-18 03:41:00,
2013-10-17 22:46:00,55.6,53.9,30.05,South,189,0.0,0.0,94,0.00,,,0.03,WeatherCatV1.02B3,2013-10-18 03:46:00,
2013-10-17 22:51:00,55.5,53.8,30.05,South,189,0.0,0.0,94,0.00,,,0.03,WeatherCatV1.02B3,2013-10-18 03:51:00,
2013-10-17 22:56:00,55.5,53.8,30.05,South,189,0.0,0.0,94,0.00,,,0.03,WeatherCatV1.02B3,2013-10-18 03:56:00,
2013-10-17 23:01:00,55.4,53.7,30.05,South,189,0.0,0.0,94,0.00,,,0.03,WeatherCatV1.02B3,2013-10-18 04:01:00,
2013-10-17 23:02:00,55.4,53.7,30.05,South,189,0.0,0.0,94,0.00,,,0.03,WeatherCatV1.02B3,2013-10-18 04:02:00,
2013-10-17 23:07:00,55.3,53.6,30.04,South,189,0.0,0.0,94,0.00,,,0.03,WeatherCatV1.02B3,2013-10-18 04:07:00,
2013-10-17 23:12:00,55.3,53.6,30.04,South,189,0.0,0.0,94,0.00,,,0.03,WeatherCatV1.02B3,2013-10-18 04:12:00,
2013-10-17 23:17:00,55.3,53.6,30.04,South,189,0.0,0.0,94,0.00,,,0.03,WeatherCatV1.02B3,2013-10-18 04:17:00,
2013-10-17 23:22:00,55.1,53.4,30.04,South,189,0.0,0.0,94,0.00,,,0.03,WeatherCatV1.02B3,2013-10-18 04:22:00,
2013-10-17 23:27:00,55.0,53.3,30.04,South,189,0.0,0.0,94,0.00,,,0.03,WeatherCatV1.02B3,2013-10-18 04:27:00,
2013-10-17 23:32:00,54.9,53.2,30.04,South,189,0.0,0.0,94,0.00,,,0.03,WeatherCatV1.02B3,2013-10-18 04:32:00,
2013-10-17 23:37:00,54.8,53.1,30.04,South,189,0.0,0.0,94,0.00,,,0.03,WeatherCatV1.02B3,2013-10-18 04:37:00,
2013-10-17 23:42:00,54.7,53.0,30.04,South,189,0.0,0.0,94,0.00,,,0.03,WeatherCatV1.02B3,2013-10-18 04:42:00,
2013-10-17 23:47:00,54.5,52.8,30.04,South,189,0.0,0.0,94,0.00,,,0.03,WeatherCatV1.02B3,2013-10-18 04:47:00,
2013-10-17 23:52:00,54.5,52.8,30.04,South,189,0.0,0.0,94,0.00,,,0.03,WeatherCatV1.02B3,2013-10-18 04:52:00,
2013-10-17 23:57:00,54.4,52.7,30.04,South,189,0.0,0.0,94,0.00,,,0.03,WeatherCatV1.02B3,2013-10-18 04:57:00,